• In Deutschland
  • Länderverzeichnis
  • Für 7 Tage
  • Wassertemperatur
  • Satellitenkarten
  • Wetterkarte
  • Widgets
  • user-avatar
    Anmelden

    Stündliche Wetter Rottweil

    Heute, 21 Juli, Samstag

    Zeit Temperatur Niederschläge Wind Luftdruck Luftfeuchtigkeit
    00:00 +18°C° 0 mm 1 m/S 705 mmHg 82%
    01:00 +16°C° 0 mm 2 m/S 705 mmHg 82%
    02:00 +16°C° 0 mm 1 m/S 705 mmHg 83%
    03:00 +15°C° 0 mm 1 m/S 705 mmHg 85%
    04:00 +15°C° 0 mm 1 m/S 705 mmHg 86%
    05:00 +16°C° 0 mm 1 m/S 705 mmHg 86%
    06:00 +16°C° 0 mm 1 m/S 705 mmHg 85%
    07:00 +18°C° 0 mm 1 m/S 705 mmHg 84%
    08:00 +19°C° 0,2 mm 1 m/S 706 mmHg 81%
    09:00 +19°C° 0,2 mm 2 m/S 706 mmHg 77%
    10:00 +20°C° 0,2 mm 2 m/S 706 mmHg 73%
    11:00 +21°C° 0,8 mm 2 m/S 706 mmHg 72%
    12:00 +23°C° 0,8 mm 1 m/S 706 mmHg 71%
    13:00 +23°C° 0,8 mm 1 m/S 706 mmHg 70%
    14:00 +23°C° 1,2 mm 2 m/S 706 mmHg 73%
    15:00 +23°C° 1,2 mm 2 m/S 706 mmHg 76%
    16:00 +21°C° 1,2 mm 2 m/S 706 mmHg 79%
    17:00 +20°C° 0,8 mm 2 m/S 706 mmHg 82%
    18:00 +20°C° 0,8 mm 2 m/S 706 mmHg 85%
    19:00 +20°C° 0,8 mm 1 m/S 706 mmHg 88%
    20:00 +19°C° 0,3 mm 1 m/S 706 mmHg 90%
    21:00 +18°C° 0,3 mm 1 m/S 706 mmHg 91%
    22:00 +16°C° 0,3 mm 1 m/S 706 mmHg 93%
    23:00 +16°C° 0,1 mm 1 m/S 706 mmHg 93%

    Morgen, 22 Juli, Sonntag

    Zeit Temperatur Niederschläge Wind Luftdruck Luftfeuchtigkeit
    00:00 +16°C° 0,1 mm 1 m/S 706 mmHg 94%
    01:00 +15°C° 0,1 mm 1 m/S 706 mmHg 95%
    02:00 +15°C° 0 mm 1 m/S 706 mmHg 95%
    03:00 +15°C° 0 mm 1 m/S 706 mmHg 95%
    04:00 +14°C° 0 mm 1 m/S 706 mmHg 96%
    05:00 +15°C° 0 mm 1 m/S 706 mmHg 94%
    06:00 +16°C° 0 mm 1 m/S 706 mmHg 93%
    07:00 +16°C° 0 mm 1 m/S 706 mmHg 91%
    08:00 +19°C° 0 mm 1 m/S 707 mmHg 83%
    09:00 +20°C° 0 mm 2 m/S 707 mmHg 75%
    10:00 +21°C° 0 mm 2 m/S 707 mmHg 66%
    11:00 +23°C° 0,2 mm 2 m/S 707 mmHg 63%
    12:00 +24°C° 0,2 mm 2 m/S 707 mmHg 60%
    13:00 +25°C° 0,2 mm 2 m/S 707 mmHg 56%
    14:00 +25°C° 0,7 mm 2 m/S 707 mmHg 61%
    15:00 +25°C° 0,7 mm 2 m/S 707 mmHg 65%
    16:00 +24°C° 0,7 mm 2 m/S 706 mmHg 69%
    17:00 +23°C° 0,9 mm 2 m/S 706 mmHg 74%
    18:00 +21°C° 0,9 mm 2 m/S 706 mmHg 79%
    19:00 +21°C° 0,9 mm 1 m/S 706 mmHg 85%
    20:00 +20°C° 1,1 mm 1 m/S 706 mmHg 87%
    21:00 +19°C° 1,1 mm 1 m/S 706 mmHg 89%
    22:00 +18°C° 1,1 mm 1 m/S 707 mmHg 91%
    23:00 +16°C° 0,5 mm 1 m/S 706 mmHg 92%

    übermorgen, 23 Juli, Montag

    Zeit Temperatur Niederschläge Wind Luftdruck Luftfeuchtigkeit
    00:00 +16°C° 0,5 mm 1 m/S 706 mmHg 93%
    01:00 +15°C° 0,5 mm 1 m/S 706 mmHg 94%
    02:00 +15°C° 0,1 mm 1 m/S 707 mmHg 94%
    03:00 +15°C° 0,1 mm 1 m/S 707 mmHg 95%
    04:00 +15°C° 0,1 mm 1 m/S 707 mmHg 95%
    05:00 +16°C° 0 mm 1 m/S 707 mmHg 94%
    06:00 +16°C° 0 mm 1 m/S 707 mmHg 93%
    07:00 +18°C° 0 mm 1 m/S 708 mmHg 92%
    08:00 +20°C° 0,2 mm 1 m/S 708 mmHg 85%
    09:00 +20°C° 0,2 mm 2 m/S 708 mmHg 78%
    10:00 +23°C° 0,2 mm 2 m/S 709 mmHg 71%
    11:00 +24°C° 0,4 mm 2 m/S 709 mmHg 67%
    12:00 +25°C° 0,4 mm 3 m/S 708 mmHg 64%
    13:00 +25°C° 0,4 mm 3 m/S 708 mmHg 61%
    14:00 +25°C° 0,4 mm 3 m/S 708 mmHg 60%
    15:00 +26°C° 0,4 mm 3 m/S 708 mmHg 60%
    16:00 +26°C° 0,4 mm 3 m/S 708 mmHg 60%
    17:00 +25°C° 0,1 mm 2 m/S 708 mmHg 65%
    18:00 +24°C° 0,1 mm 2 m/S 708 mmHg 69%
    19:00 +23°C° 0,1 mm 1 m/S 708 mmHg 74%
    20:00 +21°C° 0 mm 1 m/S 708 mmHg 78%
    21:00 +20°C° 0 mm 1 m/S 708 mmHg 82%
    22:00 +18°C° 0 mm 1 m/S 708 mmHg 87%
    23:00 +18°C° 0 mm 1 m/S 708 mmHg 88%

    24 Juli, Dienstag

    Zeit Temperatur Niederschläge Wind Luftdruck Luftfeuchtigkeit
    00:00 +16°C° 0 mm 1 m/S 708 mmHg 89%
    01:00 +16°C° 0 mm 1 m/S 708 mmHg 90%
    02:00 +15°C° 0 mm 1 m/S 707 mmHg 90%
    03:00 +14°C° 0 mm 0 m/S 707 mmHg 91%
    04:00 +14°C° 0 mm 0 m/S 707 mmHg 91%
    05:00 +15°C° 0 mm 0 m/S 707 mmHg 88%
    06:00 +18°C° 0 mm 1 m/S 707 mmHg 85%
    07:00 +19°C° 0 mm 1 m/S 707 mmHg 83%
    08:00 +21°C° 0 mm 1 m/S 707 mmHg 75%
    09:00 +23°C° 0 mm 2 m/S 708 mmHg 68%
    10:00 +25°C° 0 mm 2 m/S 708 mmHg 61%
    11:00 +26°C° 0 mm 2 m/S 708 mmHg 57%
    12:00 +27°C° 0 mm 2 m/S 707 mmHg 54%
    13:00 +28°C° 0 mm 2 m/S 707 mmHg 51%
    14:00 +28°C° 0 mm 2 m/S 707 mmHg 51%
    15:00 +28°C° 0 mm 2 m/S 707 mmHg 52%
    16:00 +28°C° 0 mm 2 m/S 707 mmHg 52%
    17:00 +27°C° 0,1 mm 2 m/S 707 mmHg 59%
    18:00 +26°C° 0,1 mm 2 m/S 707 mmHg 66%
    19:00 +25°C° 0,1 mm 2 m/S 707 mmHg 73%
    20:00 +23°C° 0,1 mm 1 m/S 707 mmHg 78%
    21:00 +21°C° 0,1 mm 1 m/S 707 mmHg 83%
    22:00 +20°C° 0,1 mm 1 m/S 707 mmHg 87%
    23:00 +19°C° 0 mm 1 m/S 707 mmHg 88%

    25 Juli, Mittwoch

    Zeit Temperatur Niederschläge Wind Luftdruck Luftfeuchtigkeit
    00:00 +19°C° 0 mm 1 m/S 707 mmHg 89%
    01:00 +18°C° 0 mm 1 m/S 707 mmHg 90%
    02:00 +18°C° 0 mm 1 m/S 707 mmHg 91%
    03:00 +18°C° 0 mm 1 m/S 706 mmHg 91%
    04:00 +18°C° 0 mm 1 m/S 706 mmHg 92%
    05:00 +17°C° 0 mm 0 m/S 707 mmHg 89%
    06:00 +18°C° 0 mm 0 m/S 707 mmHg 86%
    07:00 +19°C° 0 mm 0 m/S 707 mmHg 84%
    08:00 +23°C° 0,3 mm 1 m/S 708 mmHg 77%
    09:00 +24°C° 0,3 mm 1 m/S 708 mmHg 71%
    10:00 +26°C° 0,3 mm 1 m/S 708 mmHg 64%
    11:00 +27°C° 0,3 mm 1 m/S 708 mmHg 61%
    12:00 +28°C° 0,3 mm 1 m/S 708 mmHg 58%
    13:00 +28°C° 0,3 mm 1 m/S 707 mmHg 54%
    14:00 +28°C° 0,1 mm 1 m/S 707 mmHg 55%
    15:00 +28°C° 0,1 mm 1 m/S 707 mmHg 55%
    16:00 +28°C° 0,1 mm 1 m/S 707 mmHg 55%
    17:00 +27°C° 0,6 mm 1 m/S 707 mmHg 62%
    18:00 +26°C° 0,6 mm 1 m/S 707 mmHg 69%
    19:00 +24°C° 0,6 mm 1 m/S 707 mmHg 77%
    20:00 +23°C° 0,6 mm 1 m/S 707 mmHg 79%
    21:00 +22°C° 0,6 mm 1 m/S 707 mmHg 82%
    22:00 +18°C° 0,6 mm 0 m/S 708 mmHg 84%
    23:00 +18°C° 0,2 mm 0 m/S 708 mmHg 85%

    26 Juli, Donnerstag

    Zeit Temperatur Niederschläge Wind Luftdruck Luftfeuchtigkeit
    00:00 +17°C° 0,2 mm 0 m/S 707 mmHg 87%
    01:00 +17°C° 0,2 mm 0 m/S 707 mmHg 88%
    02:00 +17°C° 0,1 mm 0 m/S 707 mmHg 89%
    03:00 +16°C° 0,1 mm 0 m/S 707 mmHg 89%
    04:00 +16°C° 0,1 mm 0 m/S 707 mmHg 90%
    05:00 +17°C° 0 mm 0 m/S 708 mmHg 88%
    06:00 +18°C° 0 mm 0 m/S 708 mmHg 86%
    07:00 +19°C° 0 mm 0 m/S 708 mmHg 84%
    08:00 +21°C° 0,1 mm 0 m/S 709 mmHg 77%
    09:00 +25°C° 0,1 mm 1 m/S 709 mmHg 70%
    10:00 +27°C° 0,1 mm 1 m/S 709 mmHg 63%
    11:00 +27°C° 0,2 mm 1 m/S 709 mmHg 59%
    12:00 +28°C° 0,2 mm 2 m/S 709 mmHg 55%
    13:00 +29°C° 0,2 mm 2 m/S 709 mmHg 51%
    14:00 +29°C° 0,1 mm 2 m/S 709 mmHg 52%
    15:00 +29°C° 0,1 mm 2 m/S 709 mmHg 52%
    16:00 +29°C° 0,1 mm 2 m/S 709 mmHg 53%
    17:00 +28°C° 0,2 mm 2 m/S 708 mmHg 60%
    18:00 +27°C° 0,2 mm 2 m/S 708 mmHg 66%
    19:00 +26°C° 0,2 mm 2 m/S 708 mmHg 73%
    20:00 +24°C° 0,1 mm 2 m/S 708 mmHg 77%
    21:00 +22°C° 0,1 mm 1 m/S 708 mmHg 82%
    22:00 +21°C° 0,1 mm 1 m/S 708 mmHg 87%
    23:00 +20°C° 0 mm 1 m/S 708 mmHg 88%
    Mehr zeigen